Change the Weather History Date:

Tuesday, August 12, 2014

  Actual Average Record
Temperature  
Mean Temperature 84 °F -  
Max Temperature 97 °F 91 °F 108 °F (1925)
Min Temperature 72 °F 69 °F 58 °F (1931)
Cooling Degree Days 19    
Growing Degree Days 34 (Base 50)    
Moisture  
Dew Point 56 °F    
Average Humidity 43    
Maximum Humidity 76    
Minimum Humidity 14    
Precipitation  
Precipitation 0.00 in - - ()
Sea Level Pressure  
Sea Level Pressure 30.11 in    
Wind  
Wind Speed 5 mph (NNE)    
Max Wind Speed 14 mph    
Max Gust Speed 23 mph    
Visibility 10 miles    
Events      
Averages and records for this station are not official NWS values.
T = Trace of Precipitation, MM = Missing Value Source: NWS Daily Summary

Daily Weather History Graph

Daily Weather History Graph

Search for Another Location

Airport or City:

Trip Planner

Search our weather history database for the weather conditions in past years. The results will help you decide how hot, cold, wet, or windy it might be!

Date:

Astronomy

Aug. 12, 2014 Rise Set
Actual Time 6:55 AM CDT 8:19 PM CDT
Civil Twilight 6:28 AM CDT 8:45 PM CDT
Nautical Twilight 5:57 AM CDT 9:16 PM CDT
Astronomical Twilight 5:25 AM CDT 9:49 PM CDT
Moon 9:41 PM CDT (8/12) 9:03 AM CDT (8/12)
Length of Visible Light 14h 16m
Length of Day
13h 24m
Waning Gibbous, 94% of the Moon is Illuminated
Aug 12
Waning Gibbous
Aug 17
Last Quarter
Aug 25
New
Sep 2
First Quarter
Sep 8
Full

Hourly Weather History & Observations

Time (CDT) Temp. Heat Index Dew Point Humidity Pressure Visibility Wind Dir Wind Speed Gust Speed Precip Events Conditions
3:15 AM 74.8 °F - 64.8 °F 71% 30.12 in 10.0 mi NW 5.8 mph - N/A   Clear
3:35 AM 75.0 °F - 64.9 °F 71% 30.11 in 10.0 mi NW 3.5 mph - N/A   Clear
3:55 AM 75.7 °F - 64.9 °F 69% 30.11 in 10.0 mi Calm Calm - N/A   Clear
4:15 AM 74.8 °F - 64.9 °F 71% 30.11 in 10.0 mi Calm Calm - N/A   Clear
4:35 AM 74.3 °F - 64.8 °F 72% 30.12 in 10.0 mi Calm Calm - N/A   Clear
4:55 AM 73.9 °F - 64.6 °F 72% 30.12 in 10.0 mi Calm Calm - N/A   Clear
5:15 AM 73.8 °F - 64.8 °F 73% 30.11 in 10.0 mi Calm Calm - N/A   Clear
5:35 AM 73.0 °F - 64.6 °F 75% 30.11 in 10.0 mi Calm Calm - N/A   Clear
5:55 AM 73.8 °F - 64.6 °F 73% 30.11 in 10.0 mi Calm Calm - N/A   Clear
6:15 AM 73.4 °F - 64.6 °F 74% 30.11 in 10.0 mi Calm Calm - N/A   Clear
6:35 AM 72.7 °F - 64.6 °F 76% 30.12 in 10.0 mi Calm Calm - N/A   Scattered Clouds
6:55 AM 72.9 °F - 64.8 °F 76% 30.12 in 10.0 mi Calm Calm - N/A   Mostly Cloudy
7:15 AM 73.4 °F - 64.6 °F 74% 30.13 in 10.0 mi Calm Calm - N/A   Scattered Clouds
7:35 AM 74.3 °F - 64.9 °F 72% 30.13 in 10.0 mi Calm Calm - N/A   Scattered Clouds
7:55 AM 76.1 °F - 64.8 °F 68% 30.14 in 10.0 mi NNW 5.8 mph - N/A   Clear
8:15 AM 78.3 °F - 64.6 °F 63% 30.14 in 10.0 mi North 5.8 mph - N/A   Clear
8:35 AM 79.7 °F - 64.6 °F 60% 30.15 in 10.0 mi NNE 5.8 mph - N/A   Clear
8:55 AM 81.0 °F 82.6 °F 64.4 °F 57% 30.15 in 10.0 mi NE 8.1 mph - N/A   Clear
9:15 AM 82.4 °F 83.9 °F 64.0 °F 54% 30.16 in 10.0 mi NE 8.1 mph - N/A   Clear
9:35 AM 82.9 °F 84.2 °F 63.7 °F 52% 30.16 in 10.0 mi ENE 9.2 mph - N/A   Clear
9:55 AM 84.6 °F 85.9 °F 63.9 °F 50% 30.16 in 10.0 mi NE 10.4 mph - N/A   Clear
10:15 AM 85.5 °F 86.6 °F 63.7 °F 48% 30.16 in 10.0 mi NNE 8.1 mph - N/A   Clear
10:35 AM 86.4 °F 87.3 °F 63.1 °F 46% 30.16 in 10.0 mi NNE 6.9 mph - N/A   Clear
12:35 PM 91.0 °F 90.0 °F 58.3 °F 33% 30.14 in 10.0 mi North 10.4 mph - N/A   Scattered Clouds
12:55 PM 91.0 °F 89.7 °F 57.6 °F 32% 30.14 in 10.0 mi NNW 13.8 mph 21.9 mph N/A   Scattered Clouds
1:15 PM 92.3 °F 90.7 °F 57.0 °F 30% 30.13 in 10.0 mi NNE 9.2 mph 17.3 mph N/A   Scattered Clouds
1:35 PM 92.8 °F 91.4 °F 57.0 °F 30% 30.12 in 10.0 mi North 8.1 mph - N/A   Scattered Clouds
1:55 PM 93.4 °F 91.5 °F 55.8 °F 28% 30.12 in 10.0 mi Calm Calm - N/A   Scattered Clouds
2:15 PM 94.5 °F 92.1 °F 54.0 °F 25% 30.11 in 10.0 mi North 12.7 mph 20.7 mph N/A   Clear
2:35 PM 94.3 °F - 52.5 °F 24% 30.11 in 10.0 mi North 9.2 mph 17.3 mph N/A   Clear
2:55 PM 95.0 °F - 51.8 °F 23% 30.10 in 10.0 mi NE 13.8 mph 17.3 mph N/A   Clear
3:15 PM 95.2 °F - 49.3 °F 21% 30.09 in 10.0 mi North 8.1 mph - N/A   Clear
3:35 PM 95.7 °F - 46.8 °F 19% 30.09 in 10.0 mi NNE 11.5 mph 19.6 mph N/A   Clear
3:55 PM 95.7 °F - 46.0 °F 18% 30.08 in 10.0 mi NNE 12.7 mph 18.4 mph N/A   Clear
4:15 PM 96.6 °F - 43.9 °F 16% 30.07 in 10.0 mi North 10.4 mph 20.7 mph N/A   Clear
4:35 PM 96.1 °F - 39.2 °F 14% 30.07 in 10.0 mi NNE 11.5 mph 19.6 mph N/A   Clear
4:55 PM 95.7 °F - 41.4 °F 15% 30.06 in 10.0 mi NE 13.8 mph 23.0 mph N/A   Clear
5:15 PM 95.4 °F - 44.6 °F 17% 30.06 in 10.0 mi NE 10.4 mph 21.9 mph N/A   Clear
5:35 PM 95.0 °F - 44.4 °F 18% 30.06 in 10.0 mi NE 11.5 mph 19.6 mph N/A   Clear
5:55 PM 94.1 °F - 45.3 °F 19% 30.06 in 10.0 mi NE 12.7 mph 17.3 mph N/A   Clear
6:15 PM 93.2 °F - 46.4 °F 20% 30.06 in 10.0 mi ENE 9.2 mph - N/A   Clear
6:55 PM 92.3 °F - 49.1 °F 23% 30.06 in 10.0 mi NE 10.4 mph - N/A   Clear
7:15 PM 91.4 °F - 50.2 °F 24% 30.06 in 10.0 mi East 10.4 mph - N/A   Clear
7:35 PM 90.3 °F - 50.0 °F 25% 30.07 in 10.0 mi ENE 10.4 mph - N/A   Clear
7:55 PM 88.9 °F - 50.0 °F 26% 30.07 in 10.0 mi ENE 9.2 mph - N/A   Clear
8:15 PM 87.3 °F - 50.5 °F 28% 30.07 in 10.0 mi ENE 6.9 mph - N/A   Clear
8:35 PM 85.6 °F - 49.8 °F 29% 30.08 in 10.0 mi ENE 6.9 mph - N/A   Clear
8:55 PM 84.6 °F - 50.4 °F 31% 30.09 in 10.0 mi ENE 4.6 mph - N/A   Clear
9:15 PM 82.6 °F - 51.1 °F 33% 30.10 in 10.0 mi ENE 3.5 mph - N/A   Clear
9:35 PM 81.5 °F - 52.0 °F 36% 30.10 in 10.0 mi Calm Calm - N/A   Clear
9:55 PM 79.7 °F - 52.7 °F 39% 30.11 in 10.0 mi Calm Calm - N/A   Clear
10:15 PM 79.2 °F - 53.1 °F 40% 30.11 in 10.0 mi Calm Calm - N/A   Clear
10:35 PM 79.2 °F - 53.6 °F 41% 30.11 in 10.0 mi Calm Calm - N/A   Clear
10:55 PM 79.3 °F - 53.6 °F 41% 30.12 in 10.0 mi Calm Calm - N/A   Clear
11:15 PM 78.6 °F - 53.8 °F 42% 30.12 in 10.0 mi Calm Calm - N/A   Clear
11:35 PM 77.9 °F - 54.0 °F 43% 30.12 in 10.0 mi Calm Calm - N/A   Clear
11:55 PM 76.6 °F - 54.5 °F 46% 30.12 in 10.0 mi Calm Calm - N/A   Clear